[[{"header":{"parameterUnit":"m.s-1","parameterCategory":1,"la1":30.2991,"la2":30.254,"lo1":-89.0895,"lo2":-89.0444,"dy":0.0017,"dx":0.0017,"nx":28,"ny":28,"refTime":"2024-05-23T03:00:00:Z","depth":0,"parameterNumber":2,"parameterNumberName":"U-component_of_WINDS"},"data":[0,0,0,0,0,0,0,0,0,0,0,0,0,0,0,0,0,0,0,0,0,0,0,0,0,0,0,0,0,0,0,0,0,0,0,0,0,0,0,0,0,0,0,0,0,0,0,0,0,0,0,0,0,0,0,0,0,0,-1.8645,-1.8645,0,-1.8606,-1.8606,-1.8605,-1.856,-1.8559,-1.8559,-1.8558,-1.8519,-1.8519,-1.8519,0,0,0,0,0,0,0,0,0,0,0,0,0,-1.8684,-1.8684,-1.8646,-1.8645,-1.8645,-1.8606,-1.8606,-1.8605,-1.856,-1.8559,-1.8558,-1.8558,-1.8519,-1.8519,-1.8519,0,0,0,0,0,0,0,0,0,0,0,0,0,-1.8658,-1.8684,-1.8646,-1.8617,-1.8614,-1.8606,-1.8606,-1.8605,-1.856,-1.8559,-1.8558,-1.8557,-1.852,-1.8519,-1.8518,-1.8536,0,0,-1.8517,-1.8516,0,0,0,0,0,0,0,0,-1.866,-1.8657,-1.8622,-1.8619,-1.8616,-1.8587,-1.8605,-1.8582,-1.8561,-1.8581,-1.8558,-1.8557,-1.8543,-1.854,-1.8535,-1.8534,-1.8532,-1.8517,-1.8516,-1.8516,-1.8516,0,0,0,0,0,0,0,-1.8662,-1.8659,-1.863,-1.8622,-1.8618,-1.8608,-1.8603,-1.8601,-1.8568,-1.8579,-1.8576,-1.8572,-1.8541,-1.8536,-1.8534,-1.8531,-1.8517,-1.8516,-1.8516,-1.8516,-1.8543,-1.8544,0,0,0,0,0,0,-1.8668,-1.866,-1.8631,-1.8629,-1.8636,-1.8608,-1.8602,-1.8597,-1.8568,-1.8563,-1.8572,-1.857,-1.8537,-1.8535,-1.8532,-1.855,-1.8516,-1.8515,-1.8515,-1.8542,-1.8543,-1.8544,0,0,0,0,0,0,-1.8669,-1.8665,-1.8633,-1.8644,-1.8639,-1.8608,-1.8603,-1.8597,-1.8592,-1.8563,-1.8557,-1.8573,-1.8536,-1.8533,-1.8535,-1.8548,-1.8515,-1.8515,-1.854,-1.8542,-1.8544,-1.8586,0,0,0,0,0,0,-1.867,-1.8666,-1.8671,-1.8644,-1.8638,-1.8635,-1.8604,-1.8597,-1.8591,-1.8587,-1.8562,-1.8557,-1.8535,-1.8536,-1.8535,-1.8547,-1.8514,-1.8539,-1.8541,-1.8543,-1.8584,-1.8589,-1.8594,0,0,0,0,0,-1.8671,-1.8685,-1.8672,-1.8669,-1.8644,-1.8636,-1.8633,-1.8607,-1.8592,-1.8598,-1.8579,-1.8558,-1.8548,-1.8537,-1.8534,-1.8547,-1.8538,-1.8541,-1.8543,-1.8581,-1.8588,-1.8594,0,0,0,0,0,0,-1.8715,-1.8681,-1.8666,-1.8671,-1.8657,-1.8629,-1.8635,-1.8616,-1.8606,-1.8602,-1.8572,-1.8567,-1.8572,-1.856,-1.8549,-1.8562,-1.854,-1.8542,-1.857,-1.8576,-1.8581,-1.8583,-1.8514,0,0,0,0,0,-1.8726,-1.8721,-1.8692,-1.87,-1.8693,-1.8666,-1.8661,-1.8643,-1.8627,-1.8621,-1.8603,-1.8589,-1.8582,-1.8579,-1.8571,-1.8582,-1.8576,-1.859,-1.8595,-1.86,-1.8601,-1.8607,-1.8612,-1.8552,-1.8552,-1.8552,0,0,-1.8747,-1.8728,-1.8727,-1.8708,-1.8695,-1.8692,-1.8661,-1.8659,-1.8656,-1.8621,-1.8621,-1.8608,-1.859,-1.8597,-1.8599,-1.8587,-1.8617,-1.8603,-1.8606,-1.8606,-1.861,-1.8615,-1.862,-1.8554,-1.8553,-1.8553,0,0,-1.8784,-1.8769,-1.8773,-1.8761,-1.8741,-1.8723,-1.8724,-1.8699,-1.8688,-1.8688,-1.8662,-1.8659,-1.8649,-1.8638,-1.8631,-1.8665,-1.8645,-1.8664,-1.869,-1.8696,-1.87,-1.8704,-1.8716,-1.8721,-1.8666,-1.8666,-1.8666,0,-1.8812,-1.8806,-1.8778,-1.8778,-1.8771,-1.8738,-1.8743,-1.8733,-1.8712,-1.8708,-1.8695,-1.8682,-1.8668,-1.8672,-1.868,-1.8676,-1.8677,-1.8665,-1.8702,-1.8706,-1.8709,-1.872,-1.8725,-1.8668,-1.8668,-1.8668,-1.8667,0,-1.8842,-1.8838,-1.8845,-1.8825,-1.8818,-1.8821,-1.8795,-1.8792,-1.8775,-1.8758,-1.8759,-1.8742,-1.873,-1.873,-1.8713,-1.8732,-1.8725,-1.8707,-1.8684,-1.8718,-1.8727,-1.8731,-1.8672,-1.8671,-1.867,-1.8669,0,0,-1.8904,-1.887,-1.8872,-1.8863,-1.884,-1.8837,-1.8838,-1.8827,-1.8825,-1.8813,-1.8813,-1.8806,-1.879,-1.8782,-1.8764,-1.8769,-1.8797,-1.8751,-1.875,-1.876,-1.8816,-1.8829,-1.8834,-1.8784,-1.8785,-1.8786,-1.8817,0,-1.8936,-1.8935,-1.8911,-1.8918,-1.8914,-1.8884,-1.8886,-1.8872,-1.8857,-1.8853,-1.8837,-1.8832,-1.8811,-1.8806,-1.881,-1.8793,-1.8808,-1.8791,-1.8785,-1.8785,-1.8789,-1.8839,-1.8852,-1.8883,-1.8821,-1.8822,-1.8822,0,-1.8973,-1.8962,-1.8968,-1.8944,-1.8942,-1.8943,-1.8931,-1.8927,-1.8912,-1.8901,-1.8893,-1.8872,-1.8873,-1.8852,-1.8853,-1.8842,-1.8839,-1.883,-1.8831,-1.8828,-1.8805,-1.8837,-1.8892,-1.8896,-1.8828,-1.8828,-1.8827,0,-1.9017,-1.9003,-1.9005,-1.8998,-1.8972,-1.8973,-1.8963,-1.8946,-1.8941,-1.8931,-1.8927,-1.8918,-1.8913,-1.8906,-1.8884,-1.8871,-1.8888,-1.8865,-1.8879,-1.888,-1.8883,-1.8882,-1.8937,-1.8882,-1.8882,-1.8882,-1.8882,0,-1.9054,-1.9059,-1.9024,-1.9025,-1.903,-1.9004,-1.9009,-1.8996,-1.8982,-1.898,-1.8955,-1.8954,-1.8926,-1.8922,-1.8906,-1.8909,-1.8907,-1.8898,-1.8894,-1.89,-1.8901,-1.8896,-1.8893,-1.8884,-1.8883,-1.8883,-1.8883,0,-1.9103,-1.908,-1.908,-1.9055,-1.9049,-1.9054,-1.9032,-1.9033,-1.9017,-1.9016,-1.9014,-1.8989,-1.8984,-1.8962,-1.8951,-1.894,-1.8949,-1.894,-1.8954,-1.895,-1.8965,-1.8964,-1.9017,-1.9023,-1.8966,-1.8967,-1.8967,0,-1.9128,-1.9131,-1.9106,-1.9103,-1.9093,-1.9088,-1.9083,-1.9057,-1.9053,-1.9036,-1.9039,-1.9031,-1.9024,-1.9017,-1.8999,-1.8991,-1.8981,-1.9001,-1.898,-1.8986,-1.8981,-1.898,-1.898,-1.9005,-1.9006,-1.9006,-1.9007,0,-1.9175,-1.9163,-1.9156,-1.9145,-1.9139,-1.9129,-1.9118,-1.9117,-1.9089,-1.9086,-1.908,-1.9074,-1.9063,-1.9057,-1.9046,-1.9036,-1.9017,-1.9014,-1.9016,-1.9022,-1.9029,-1.9025,-1.8965,-1.9012,-1.9012,-1.9011,-1.9011,-1.9011,-1.9212,-1.9213,-1.9196,-1.9188,-1.9177,-1.9168,-1.9167,-1.9151,-1.9145,-1.9134,-1.912,-1.9116,-1.9101,-1.9085,-1.9076,-1.9073,-1.9062,-1.9066,-1.9067,-1.9068,-1.9071,-1.9031,-1.9071,-1.9071,-1.9071,-1.9071,-1.9071,0,-1.9256,-1.9244,-1.9238,-1.9223,-1.9217,-1.92,-1.9187,-1.9184,-1.918,-1.9168,-1.9161,-1.9155,-1.9148,-1.913,-1.9122,-1.9123,-1.9114,-1.9121,-1.9121,-1.9119,-1.9082,-1.908,-1.9129,-1.9129,-1.9129,-1.9129,-1.9129,-1.9129,-1.9279,-1.928,-1.9267,-1.9262,-1.925,-1.9245,-1.9239,-1.9231,-1.9221,-1.9214,-1.9208,-1.9196,-1.9182,-1.9173,-1.9166,-1.9161,-1.9159,-1.9169,-1.9161,-1.9127,-1.9121,-1.9116,-1.9114,-1.9169,-1.9169,-1.9198,-1.9198,-1.9198]},{"header":{"parameterUnit":"m.s-1","parameterCategory":1,"la1":30.2991,"la2":30.254,"lo1":-89.0895,"lo2":-89.0444,"dy":0.0017,"dx":0.0017,"nx":28,"ny":28,"refTime":"2024-05-23T03:00:00:Z","depth":0,"parameterNumber":3,"parameterNumberName":"V-component_of_WINDS"},"data":[0,0,0,0,0,0,0,0,0,0,0,0,0,0,0,0,0,0,0,0,0,0,0,0,0,0,0,0,0,0,0,0,0,0,0,0,0,0,0,0,0,0,0,0,0,0,0,0,0,0,0,0,0,0,0,0,0,0,3.4996,3.4996,0,3.5012,3.5012,3.5012,3.4999,3.4998,3.4998,3.4997,3.5012,3.5013,3.5014,0,0,0,0,0,0,0,0,0,0,0,0,0,3.4954,3.4955,3.4996,3.4996,3.4997,3.5012,3.5012,3.5012,3.4999,3.4998,3.4998,3.4997,3.5012,3.5013,3.5014,0,0,0,0,0,0,0,0,0,0,0,0,0,3.4971,3.4956,3.4996,3.4992,3.4992,3.5011,3.5012,3.5012,3.4999,3.4998,3.4998,3.4997,3.5012,3.5013,3.5014,3.5039,0,0,3.5018,3.5019,0,0,0,0,0,0,0,0,3.497,3.4973,3.4992,3.4992,3.4992,3.5003,3.5002,3.5021,3.4999,3.4996,3.4997,3.4996,3.501,3.5011,3.5016,3.5039,3.504,3.5019,3.5019,3.502,3.502,0,0,0,0,0,0,0,3.4969,3.4972,3.5002,3.4993,3.4992,3.4989,3.499,3.5006,3.5007,3.4997,3.4996,3.4998,3.5009,3.5014,3.5016,3.504,3.5019,3.502,3.5021,3.5021,3.5085,3.5086,0,0,0,0,0,0,3.4969,3.4971,3.5002,3.5003,3.4979,3.499,3.4992,3.5,3.5007,3.5007,3.4998,3.4997,3.5013,3.5014,3.5016,3.5046,3.502,3.5021,3.5022,3.5084,3.5085,3.5086,0,0,0,0,0,0,3.4968,3.4972,3.5001,3.4987,3.499,3.4992,3.5001,3.5001,3.5006,3.5008,3.5009,3.5003,3.5012,3.5015,3.5033,3.5046,3.5022,3.5023,3.5083,3.5084,3.5086,3.5105,0,0,0,0,0,0,3.4967,3.4971,3.4981,3.4987,3.4991,3.5018,3.5002,3.5002,3.5008,3.5007,3.5013,3.5014,3.5012,3.5031,3.5035,3.5048,3.5024,3.5082,3.5084,3.5085,3.5103,3.5107,3.511,0,0,0,0,0,3.4965,3.4986,3.4982,3.4985,3.5003,3.5019,3.5021,3.5019,3.5009,3.5019,3.5021,3.5013,3.5044,3.5034,3.5037,3.5051,3.5081,3.5083,3.5085,3.5102,3.5106,3.511,0,0,0,0,0,0,3.4981,3.4986,3.4982,3.5005,3.5012,3.5017,3.5029,3.5023,3.5033,3.5031,3.5027,3.5029,3.5049,3.5051,3.5039,3.5075,3.5061,3.5064,3.5072,3.5077,3.508,3.5079,3.5025,0,0,0,0,0,3.4987,3.5,3.5003,3.5023,3.5027,3.5027,3.5034,3.5032,3.5038,3.5041,3.5044,3.5051,3.5062,3.5069,3.5079,3.5103,3.5105,3.5114,3.5118,3.512,3.5123,3.5136,3.514,3.5093,3.5093,3.5093,0,0,3.5,3.5004,3.5012,3.5027,3.5032,3.5045,3.503,3.5044,3.5054,3.5043,3.5061,3.5064,3.5071,3.5092,3.5102,3.5095,3.5136,3.5123,3.5125,3.5126,3.5138,3.5143,3.5147,3.5094,3.5094,3.5094,0,0,3.503,3.5034,3.5052,3.5057,3.5064,3.5064,3.5068,3.5074,3.5076,3.5094,3.5086,3.5097,3.5116,3.5122,3.5127,3.5159,3.5152,3.5162,3.518,3.5192,3.5196,3.5199,3.5211,3.5215,3.5164,3.5165,3.5165,0,3.5045,3.5064,3.5061,3.5076,3.5083,3.5073,3.5091,3.5096,3.5106,3.5111,3.5103,3.5127,3.5131,3.5154,3.5161,3.5166,3.517,3.5162,3.5196,3.5199,3.5202,3.5213,3.5218,3.5166,3.5166,3.5165,3.5165,0,3.5083,3.5096,3.5109,3.512,3.5128,3.5144,3.5142,3.5151,3.5147,3.5148,3.5166,3.5171,3.5182,3.5187,3.5183,3.5209,3.5205,3.5196,3.5183,3.5208,3.5218,3.5223,3.5167,3.5167,3.5167,3.5166,0,0,3.5124,3.5132,3.5137,3.5142,3.5149,3.516,3.5175,3.5186,3.5193,3.5201,3.5213,3.523,3.5222,3.5228,3.5225,3.5236,3.5261,3.5226,3.5226,3.5233,3.529,3.5297,3.5302,3.5257,3.5257,3.5258,3.529,0,3.5155,3.5183,3.518,3.5206,3.5218,3.5209,3.5222,3.5228,3.5229,3.524,3.524,3.5252,3.5241,3.5244,3.5255,3.5256,3.5273,3.5253,3.5269,3.5269,3.5268,3.5307,3.5315,3.5344,3.5294,3.5294,3.5295,0,3.5196,3.5205,3.5232,3.5237,3.5242,3.5255,3.5264,3.5274,3.528,3.528,3.5287,3.5282,3.5297,3.5282,3.5303,3.529,3.5296,3.5297,3.5298,3.53,3.5284,3.5311,3.5354,3.5358,3.5301,3.53,3.53,0,3.5224,3.5243,3.5262,3.5266,3.5272,3.5281,3.5284,3.5289,3.5296,3.5304,3.5309,3.5319,3.5324,3.5332,3.5329,3.5319,3.5351,3.5336,3.5351,3.5351,3.5359,3.5359,3.5404,3.5362,3.5362,3.5361,3.5361,0,3.526,3.5277,3.5275,3.5287,3.5305,3.5301,3.532,3.5322,3.5326,3.5338,3.533,3.5341,3.5337,3.5347,3.5345,3.5363,3.5366,3.5366,3.5365,3.5367,3.5367,3.5372,3.537,3.5363,3.5362,3.5362,3.5362,0,3.5296,3.5295,3.5315,3.5319,3.532,3.5334,3.5338,3.5348,3.5348,3.5363,3.5366,3.5366,3.5378,3.5376,3.5389,3.5388,3.541,3.5406,3.5408,3.5408,3.5424,3.5422,3.5474,3.5481,3.5433,3.5433,3.5434,0,3.532,3.5333,3.5338,3.5346,3.5349,3.5361,3.5368,3.5364,3.5371,3.5379,3.5389,3.54,3.5409,3.5428,3.5429,3.5439,3.5436,3.5454,3.5438,3.5439,3.5438,3.5437,3.5439,3.5457,3.5458,3.5458,3.5459,0,3.5362,3.5361,3.5371,3.5381,3.5389,3.5397,3.5404,3.541,3.5406,3.5415,3.5427,3.5434,3.5447,3.5459,3.5468,3.5471,3.5464,3.5463,3.5467,3.547,3.5471,3.5471,3.5418,3.5462,3.5462,3.5462,3.5462,3.5461,3.5393,3.5404,3.541,3.5422,3.5426,3.5432,3.5443,3.5443,3.5454,3.5465,3.5461,3.5475,3.548,3.5492,3.5495,3.5506,3.55,3.5506,3.5507,3.5509,3.5512,3.5468,3.5508,3.5508,3.5507,3.5507,3.5507,0,3.5436,3.5439,3.5449,3.5459,3.5468,3.546,3.5467,3.5475,3.5488,3.5493,3.5502,3.5516,3.5526,3.5528,3.5538,3.5546,3.5543,3.5549,3.5549,3.555,3.5516,3.5512,3.5551,3.5551,3.5551,3.5551,3.5551,3.5551,3.5459,3.5478,3.5477,3.5497,3.55,3.5514,3.5518,3.5524,3.5528,3.5544,3.5553,3.5554,3.5557,3.5567,3.5577,3.5577,3.5581,3.5588,3.5587,3.5556,3.5552,3.5548,3.5544,3.5589,3.5589,3.562,3.562,3.562]}]]